[[{"header":{"parameterUnit":"m.s-1","parameterCategory":1,"la1":30.2991,"la2":30.254,"lo1":-89.0895,"lo2":-89.0444,"dy":0.0017,"dx":0.0017,"nx":28,"ny":28,"refTime":"2024-08-31T09:00:00:Z","depth":0,"parameterNumber":2,"parameterNumberName":"U-component_of_WINDS"},"data":[0,0,0,0,0,0,0,0,0,0,0,0,0,0,0,0,0,0,0,0,0,0,0,0,0,0,0,0,0,0,0,0,0,0,0,0,0,0,0,0,0,0,0,0,0,0,0,0,0,0,0,0,0,0,0,0,0,0,-2.3536,-2.3536,0,-2.3525,-2.3525,-2.3525,-2.3446,-2.3444,-2.3443,-2.3441,-2.3431,-2.3432,-2.3434,0,0,0,0,0,0,0,0,0,0,0,0,0,-2.3494,-2.3495,-2.3536,-2.3536,-2.3536,-2.3525,-2.3525,-2.3525,-2.3447,-2.3444,-2.3442,-2.344,-2.343,-2.3432,-2.3434,0,0,0,0,0,0,0,0,0,0,0,0,0,-2.3501,-2.3495,-2.3536,-2.3496,-2.3492,-2.3525,-2.3525,-2.3525,-2.3447,-2.3444,-2.3441,-2.3439,-2.343,-2.3432,-2.3434,-2.3506,0,0,-2.3441,-2.3442,0,0,0,0,0,0,0,0,-2.35,-2.3502,-2.3502,-2.3499,-2.3495,-2.3484,-2.3506,-2.3518,-2.3448,-2.3464,-2.3441,-2.3437,-2.3451,-2.3451,-2.3456,-2.3505,-2.3505,-2.3441,-2.3443,-2.3444,-2.3444,0,0,0,0,0,0,0,-2.35,-2.3502,-2.3532,-2.3502,-2.3498,-2.3479,-2.3477,-2.3508,-2.3474,-2.3463,-2.3457,-2.3457,-2.3448,-2.3454,-2.3455,-2.3505,-2.3441,-2.3443,-2.3445,-2.3446,-2.3614,-2.3617,0,0,0,0,0,0,-2.3505,-2.3502,-2.3532,-2.3532,-2.349,-2.3482,-2.348,-2.349,-2.3473,-2.3468,-2.3459,-2.3453,-2.3451,-2.3452,-2.3454,-2.3537,-2.3444,-2.3446,-2.3447,-2.3611,-2.3615,-2.3618,0,0,0,0,0,0,-2.3504,-2.3508,-2.3533,-2.3515,-2.3517,-2.3486,-2.3499,-2.3492,-2.3497,-2.3471,-2.3464,-2.347,-2.3449,-2.3451,-2.3494,-2.3535,-2.3447,-2.3449,-2.3607,-2.3612,-2.3616,-2.3703,0,0,0,0,0,0,-2.3503,-2.3508,-2.3534,-2.3517,-2.3518,-2.3572,-2.3501,-2.3494,-2.3501,-2.3492,-2.3479,-2.3475,-2.3447,-2.3491,-2.3496,-2.3537,-2.3451,-2.3603,-2.3609,-2.3615,-2.3696,-2.371,-2.3722,0,0,0,0,0,-2.3502,-2.3559,-2.3536,-2.354,-2.355,-2.3574,-2.3575,-2.3541,-2.3504,-2.3531,-2.3514,-2.3475,-2.3531,-2.3496,-2.3501,-2.3543,-2.36,-2.3608,-2.3614,-2.3691,-2.3707,-2.3722,0,0,0,0,0,0,-2.3583,-2.3556,-2.353,-2.3583,-2.3582,-2.3561,-2.3593,-2.356,-2.3569,-2.3562,-2.352,-2.3518,-2.3567,-2.356,-2.3521,-2.3612,-2.3559,-2.3567,-2.3615,-2.3631,-2.3643,-2.3644,-2.3453,0,0,0,0,0,-2.3607,-2.3628,-2.3604,-2.3653,-2.3654,-2.3624,-2.3633,-2.3608,-2.3604,-2.3603,-2.359,-2.3589,-2.3606,-2.3618,-2.3633,-2.3696,-2.3692,-2.3728,-2.3741,-2.3751,-2.3759,-2.3792,-2.3808,-2.3641,-2.3641,-2.3641,0,0,-2.3657,-2.3645,-2.3661,-2.3669,-2.3665,-2.3689,-2.3624,-2.3651,-2.3669,-2.3608,-2.3647,-2.3638,-2.3634,-2.3687,-2.371,-2.3683,-2.3804,-2.376,-2.3769,-2.377,-2.3801,-2.3817,-2.3831,-2.3646,-2.3645,-2.3644,0,0,-2.3759,-2.3753,-2.3793,-2.379,-2.3785,-2.3765,-2.3775,-2.376,-2.3751,-2.379,-2.3745,-2.3766,-2.3796,-2.3796,-2.3799,-2.3905,-2.3869,-2.3911,-2.3977,-2.4011,-2.4024,-2.4035,-2.4073,-2.4087,-2.3919,-2.3919,-2.3919,0,-2.3822,-2.3855,-2.3818,-2.3849,-2.3854,-2.3801,-2.3842,-2.3842,-2.3842,-2.3847,-2.3817,-2.3854,-2.3848,-2.3901,-2.3927,-2.3932,-2.3943,-2.3911,-2.4025,-2.4036,-2.4046,-2.4081,-2.4096,-2.3924,-2.3923,-2.3923,-2.3922,0,-2.3932,-2.3956,-2.399,-2.3991,-2.4,-2.4037,-2.4006,-2.4021,-2.3995,-2.3979,-2.402,-2.4012,-2.4023,-2.4035,-2.401,-2.4085,-2.4068,-2.4032,-2.3977,-2.4068,-2.41,-2.4114,-2.3931,-2.3929,-2.3928,-2.3926,0,0,-2.4083,-2.4065,-2.4078,-2.4078,-2.4069,-2.4087,-2.4122,-2.4133,-2.4147,-2.415,-2.4178,-2.4206,-2.4173,-2.4177,-2.4153,-2.4182,-2.4267,-2.4142,-2.4142,-2.4165,-2.4349,-2.4376,-2.4392,-2.4244,-2.4246,-2.4248,-2.4349,0,-2.4182,-2.4238,-2.4207,-2.4269,-2.4291,-2.4241,-2.4272,-2.427,-2.4257,-2.4275,-2.426,-2.428,-2.4235,-2.4238,-2.4265,-2.4251,-2.4303,-2.4243,-2.427,-2.4272,-2.4271,-2.4409,-2.4437,-2.4533,-2.4362,-2.4364,-2.4366,0,-2.4303,-2.4311,-2.4374,-2.4362,-2.437,-2.4398,-2.4407,-2.4424,-2.4422,-2.4411,-2.4417,-2.4386,-2.442,-2.4367,-2.4414,-2.4374,-2.4384,-2.4379,-2.4382,-2.4382,-2.4323,-2.4413,-2.4562,-2.4577,-2.4385,-2.4384,-2.4382,0,-2.4407,-2.4433,-2.4475,-2.4477,-2.4464,-2.4484,-2.448,-2.4475,-2.4485,-2.4493,-2.4499,-2.4512,-2.4519,-2.453,-2.4504,-2.4467,-2.4555,-2.4499,-2.4547,-2.4547,-2.4566,-2.4565,-2.4719,-2.4574,-2.4574,-2.4574,-2.4573,0,-2.4519,-2.456,-2.4521,-2.4547,-2.4591,-2.4557,-2.4602,-2.4593,-2.459,-2.4613,-2.4572,-2.4596,-2.456,-2.458,-2.456,-2.4602,-2.4606,-2.4598,-2.4592,-2.4601,-2.4602,-2.4606,-2.4599,-2.4577,-2.4576,-2.4576,-2.4575,0,-2.4642,-2.4617,-2.4659,-2.4644,-2.4641,-2.4675,-2.4663,-2.4686,-2.4671,-2.4702,-2.4707,-2.4683,-2.4705,-2.468,-2.47,-2.4687,-2.4744,-2.4729,-2.4745,-2.474,-2.4789,-2.4784,-2.495,-2.497,-2.4813,-2.4814,-2.4816,0,-2.4714,-2.4744,-2.4733,-2.4746,-2.4744,-2.4765,-2.4774,-2.4742,-2.4754,-2.4756,-2.478,-2.4798,-2.4811,-2.4849,-2.4834,-2.4849,-2.4833,-2.489,-2.4835,-2.4844,-2.4834,-2.4832,-2.4836,-2.4901,-2.4903,-2.4905,-2.4906,0,-2.4846,-2.4833,-2.4848,-2.4859,-2.4872,-2.488,-2.4884,-2.4897,-2.4864,-2.488,-2.4902,-2.4912,-2.4933,-2.4952,-2.4964,-2.496,-2.4928,-2.4924,-2.4935,-2.4945,-2.4953,-2.4949,-2.4775,-2.492,-2.4918,-2.4917,-2.4917,-2.4916,-2.4946,-2.4971,-2.4967,-2.4985,-2.4985,-2.4991,-2.5013,-2.5001,-2.5018,-2.5032,-2.5012,-2.504,-2.5039,-2.5051,-2.5052,-2.5074,-2.505,-2.5067,-2.5071,-2.5075,-2.5083,-2.495,-2.5076,-2.5076,-2.5075,-2.5075,-2.5075,0,-2.5075,-2.507,-2.5088,-2.5096,-2.5111,-2.5079,-2.5084,-2.5098,-2.5123,-2.5125,-2.5138,-2.5164,-2.5183,-2.5171,-2.5187,-2.5207,-2.5193,-2.5213,-2.521,-2.521,-2.5103,-2.5091,-2.5224,-2.5224,-2.5224,-2.5224,-2.5224,-2.5224,-2.5144,-2.5185,-2.5172,-2.5213,-2.5208,-2.5234,-2.5239,-2.5245,-2.5246,-2.5277,-2.5292,-2.5284,-2.528,-2.5296,-2.5313,-2.5309,-2.5317,-2.5342,-2.5333,-2.5233,-2.5218,-2.5204,-2.5192,-2.5344,-2.5344,-2.5438,-2.5439,-2.5439]},{"header":{"parameterUnit":"m.s-1","parameterCategory":1,"la1":30.2991,"la2":30.254,"lo1":-89.0895,"lo2":-89.0444,"dy":0.0017,"dx":0.0017,"nx":28,"ny":28,"refTime":"2024-08-31T09:00:00:Z","depth":0,"parameterNumber":3,"parameterNumberName":"V-component_of_WINDS"},"data":[0,0,0,0,0,0,0,0,0,0,0,0,0,0,0,0,0,0,0,0,0,0,0,0,0,0,0,0,0,0,0,0,0,0,0,0,0,0,0,0,0,0,0,0,0,0,0,0,0,0,0,0,0,0,0,0,0,0,2.0589,2.059,0,2.0633,2.0633,2.0634,2.0676,2.0676,2.0677,2.0678,2.0719,2.0719,2.072,0,0,0,0,0,0,0,0,0,0,0,0,0,2.054,2.0541,2.0589,2.059,2.059,2.0633,2.0633,2.0634,2.0676,2.0676,2.0677,2.0678,2.0719,2.0719,2.072,0,0,0,0,0,0,0,0,0,0,0,0,0,2.057,2.0541,2.0589,2.0616,2.0619,2.0632,2.0633,2.0634,2.0676,2.0676,2.0677,2.0678,2.0718,2.0719,2.072,2.0709,0,0,2.0723,2.0723,0,0,0,0,0,0,0,0,2.0568,2.0572,2.0612,2.0615,2.0618,2.065,2.0631,2.0659,2.0675,2.0654,2.0678,2.0679,2.0695,2.0698,2.0704,2.0711,2.0713,2.0723,2.0723,2.0724,2.0724,0,0,0,0,0,0,0,2.0566,2.057,2.0606,2.0612,2.0616,2.0626,2.0631,2.0637,2.0669,2.0656,2.0659,2.0664,2.0697,2.0703,2.0705,2.0713,2.0723,2.0724,2.0724,2.0725,2.0713,2.0712,0,0,0,0,0,0,2.056,2.0568,2.0605,2.0608,2.0595,2.0626,2.0632,2.0639,2.0669,2.0675,2.0663,2.0666,2.0701,2.0704,2.0707,2.0696,2.0724,2.0725,2.0725,2.0714,2.0713,2.0712,0,0,0,0,0,0,2.0559,2.0563,2.0603,2.0589,2.0595,2.0626,2.0633,2.0639,2.0646,2.0675,2.0681,2.0664,2.0702,2.0706,2.0708,2.0698,2.0725,2.0726,2.0715,2.0713,2.0712,2.0673,0,0,0,0,0,0,2.0558,2.0563,2.0559,2.0589,2.0595,2.0604,2.0633,2.0639,2.0647,2.0651,2.0677,2.0682,2.0703,2.0707,2.0709,2.0699,2.0726,2.0716,2.0714,2.0713,2.0676,2.0671,2.0667,0,0,0,0,0,2.0556,2.0546,2.0559,2.0563,2.0592,2.0604,2.0608,2.0633,2.0646,2.0643,2.0662,2.0681,2.0699,2.0707,2.071,2.07,2.0717,2.0715,2.0713,2.0678,2.0672,2.0667,0,0,0,0,0,0,2.0513,2.055,2.0565,2.0564,2.0581,2.0611,2.0607,2.0626,2.0638,2.0641,2.0671,2.0676,2.0675,2.0688,2.0696,2.0691,2.071,2.0709,2.0682,2.0677,2.0673,2.0669,2.0727,0,0,0,0,0,2.0504,2.0511,2.0543,2.0539,2.0547,2.0575,2.0582,2.06,2.0618,2.0624,2.0643,2.0659,2.0668,2.0674,2.0684,2.0678,2.0684,2.0673,2.0668,2.0665,2.0663,2.0661,2.0656,2.0706,2.0706,2.0706,0,0,2.0484,2.0505,2.0508,2.0531,2.0546,2.0552,2.0581,2.0586,2.0591,2.0625,2.0629,2.0643,2.0663,2.0661,2.0661,2.0672,2.0651,2.0662,2.0659,2.0659,2.0658,2.0653,2.0649,2.0704,2.0705,2.0705,0,0,2.0452,2.0469,2.0468,2.0482,2.0505,2.0524,2.0524,2.0552,2.0563,2.0568,2.0593,2.0599,2.0614,2.0627,2.0635,2.0609,2.0627,2.0611,2.0588,2.0585,2.0581,2.0578,2.0568,2.0564,2.0609,2.0609,2.0609,0,2.0424,2.0436,2.0464,2.0469,2.0478,2.051,2.0509,2.0521,2.0545,2.0551,2.0562,2.0583,2.0598,2.06,2.0593,2.0599,2.0599,2.0608,2.058,2.0577,2.0574,2.0565,2.0561,2.0607,2.0607,2.0608,2.0608,0,2.0401,2.0408,2.0405,2.0429,2.0437,2.0439,2.0467,2.0472,2.049,2.0508,2.0512,2.0532,2.0546,2.0548,2.0565,2.0552,2.0558,2.0574,2.0594,2.0567,2.0558,2.0555,2.0604,2.0605,2.0606,2.0606,0,0,2.0342,2.0383,2.0381,2.0392,2.042,2.0426,2.0428,2.0444,2.0448,2.0463,2.0466,2.0478,2.0494,2.0503,2.0522,2.052,2.0497,2.0536,2.0537,2.0528,2.0484,2.0471,2.0467,2.051,2.0509,2.0509,2.0482,0,2.0314,2.0322,2.0348,2.0347,2.0355,2.0386,2.0388,2.0405,2.0421,2.0429,2.0448,2.0456,2.0476,2.0482,2.0481,2.05,2.0489,2.0502,2.0511,2.0511,2.0505,2.0463,2.0449,2.0424,2.048,2.0479,2.0479,0,2.0282,2.0297,2.0298,2.0326,2.0329,2.0331,2.0348,2.0355,2.0374,2.0387,2.0398,2.0419,2.0423,2.0442,2.0447,2.0456,2.0462,2.0471,2.0471,2.0472,2.0493,2.0462,2.0416,2.0412,2.0474,2.0474,2.0475,0,2.0239,2.0259,2.0262,2.0271,2.0303,2.0304,2.0317,2.0338,2.0345,2.036,2.0365,2.0379,2.0386,2.0396,2.042,2.0432,2.0422,2.0444,2.0432,2.0431,2.0428,2.0428,2.0381,2.0432,2.0432,2.0432,2.0432,0,2.0204,2.0203,2.0243,2.0245,2.0244,2.0274,2.0273,2.0289,2.0307,2.0312,2.0339,2.0343,2.0375,2.0382,2.0401,2.0402,2.0405,2.0415,2.042,2.0412,2.0411,2.0416,2.0418,2.0431,2.0432,2.0432,2.0432,0,2.0156,2.0182,2.0188,2.0219,2.0226,2.0225,2.0251,2.0253,2.0272,2.0278,2.0281,2.031,2.032,2.0345,2.0361,2.0374,2.037,2.0379,2.0364,2.0367,2.0353,2.0354,2.0308,2.0303,2.0357,2.0357,2.0356,0,2.0132,2.0132,2.0163,2.0169,2.0182,2.0191,2.0199,2.0228,2.0236,2.0258,2.0258,2.027,2.0282,2.0296,2.0318,2.0331,2.034,2.0323,2.0342,2.0334,2.0339,2.0339,2.0339,2.0318,2.0318,2.0317,2.0317,0,2.0086,2.01,2.0112,2.0128,2.0137,2.0151,2.0166,2.0169,2.0202,2.0209,2.022,2.0229,2.0247,2.0258,2.0274,2.0287,2.0307,2.0311,2.0309,2.0301,2.0291,2.0296,2.0352,2.0311,2.0312,2.0312,2.0313,2.0313,2.0049,2.0051,2.0073,2.0085,2.01,2.0114,2.0118,2.0138,2.0148,2.0165,2.0182,2.0191,2.0211,2.0234,2.0246,2.0253,2.0263,2.026,2.026,2.0258,2.0255,2.0291,2.0256,2.0256,2.0257,2.0257,2.0257,0,2.0005,2.0021,2.0032,2.0053,2.0063,2.0082,2.01,2.0106,2.0115,2.0132,2.0143,2.0155,2.0167,2.019,2.0204,2.0205,2.0214,2.0208,2.0207,2.021,2.0245,2.0245,2.02,2.02,2.02,2.02,2.02,2.02,1.9983,1.9987,2.0003,2.0014,2.0031,2.0041,2.0049,2.0062,2.0076,2.0089,2.0099,2.0115,2.0134,2.015,2.0161,2.0168,2.0171,2.0161,2.017,2.0202,2.0207,2.0213,2.0213,2.0161,2.0161,2.0135,2.0134,2.0134]}]]